Temperature
23 23 23 23 21 20 23 24 24 24 24 24 24 23 22 21 21 21 21 21 21 21 20 20 19 19 19 19 19 20 20 19 19 19 19 19 19 19 19 19 19 19 19 19 19 19 19 19 19
24 23 23 23 20 21 23 24 24 25 24 24 24 23 21 20 20 20 20 20 21 21 20 20 20 20 20 20 20 20 20 20 20 19 19 19 20 20 19 19 19 19 19 19 19 19 19 19 19
24 24 24 20 21 22 24 24 24 25 25 24 23 22 21 21 21 21 21 20 20 20 20 20 20 20 20 20 20 20 20 20 20 20 20 20 20 20 20 19 19 19 19 19 19 19 18 18 19
24 24 24 21 23 24 24 25 25 24 25 24 23 21 21 21 21 21 21 20 20 20 20 20 20 20 20 20 20 20 20 20 20 20 20 20 20 20 20 19 19 19 19 19 19 18 18 18 18
25 25 21 22 23 24 24 25 26 24 23 23 22 21 21 21 21 21 21 21 21 21 20 20 20 20 20 20 20 20 20 20 20 20 20 20 20 20 19 19 19 19 19 19 19 18 18 18 18
25 23 21 22 23 24 24 25 25 24 23 23 22 21 20 21 21 21 21 21 21 21 21 20 20 20 20 20 20 20 20 19 19 19 19 19 19 19 19 19 19 19 19 19 18 18 18 18 18
24 21 22 22 22 23 24 25 24 23 23 23 23 20 21 21 21 21 21 21 21 21 21 21 21 20 20 20 20 20 20 20 19 19 19 19 19 19 19 19 19 19 19 18 18 18 18 18 18
25 21 22 22 22 23 24 25 25 24 24 24 23 21 21 21 21 21 20 21 21 21 21 21 21 21 20 20 20 20 20 19 19 19 19 19 19 19 19 19 19 19 19 18 18 18 18 18 18
25 20 21 22 23 23 24 24 24 24 24 23 23 23 23 22 21 20 20 20 20 21 21 21 21 21 20 20 20 20 19 19 19 19 19 19 19 19 19 19 19 19 19 18 18 18 18 18 18
24 21 23 23 23 23 24 23 24 24 23 23 23 23 23 22 21 21 21 21 21 21 21 21 21 20 20 20 20 19 19 19 19 19 19 19 19 19 19 19 19 19 19 18 18 18 18 18 18
24 22 23 23 23 24 24 23 22 22 20 21 21 22 22 21 21 21 21 21 21 21 20 20 20 20 20 20 20 19 19 19 19 19 19 19 19 19 19 19 19 19 19 19 18 18 18 18 18
24 23 23 23 24 24 23 22 20 19 18 19 21 21 21 20 19 19 19 20 20 20 20 20 20 20 20 20 20 19 19 19 19 19 19 19 19 19 19 19 19 19 19 19 18 18 18 18 18
24 23 23 23 23 22 21 20 19 18 18 19 20 20 19 18 18 18 18 19 19 19 20 20 20 20 20 19 19 19 19 19 19 19 19 19 19 19 19 19 19 19 19 19 18 18 18 18 18
23 22 22 21 22 21 19 18 18 17 17 18 17 17 17 17 17 18 18 18 18 18 19 19 20 20 20 20 20 19 19 19 19 19 19 19 19 19 19 18 18 19 19 19 18 18 18 18 18
24 22 21 20 20 21 20 16 16 16 16 16 15 15 16 16 16 16 17 17 17 17 18 18 19 19 19 19 19 19 19 19 19 19 19 19 19 19 19 18 18 18 18 18 18 18 18 18 18
22 21 20 20 19 20 18 15 15 15 14 14 14 14 14 15 15 15 16 16 17 17 17 18 18 18 19 19 19 19 19 19 19 19 19 19 19 19 18 18 18 18 18 18 18 18 18 18 18
19 20 20 19 18 18 16 14 14 13 13 12 13 13 13 14 15 15 15 16 16 17 17 17 18 18 18 19 19 19 19 19 19 19 19 19 19 18 18 18 18 18 18 18 18 18 18 18 18
20 20 19 18 17 15 14 13 13 13 13 12 12 12 13 13 14 14 15 15 16 16 17 17 17 18 18 18 18 19 19 20 19 19 19 19 19 18 18 18 18 18 18 18 18 18 18 18 18
19 19 18 18 16 14 13 12 12 13 12 12 12 12 12 13 14 14 15 15 16 16 16 17 17 17 18 18 18 18 19 19 19 19 19 19 19 19 18 18 18 18 18 18 18 18 18 18 17
18 17 17 17 16 14 12 12 13 13 12 12 12 11 11 12 13 14 14 15 15 15 16 16 16 16 17 17 17 17 18 19 19 19 19 19 19 19 18 18 18 18 18 17 17 17 17 17 17
17 17 17 17 15 14 13 12 12 12 13 12 12 11 11 11 12 12 13 14 14 14 15 15 15 16 16 16 16 17 17 18 18 19 19 19 19 19 19 18 18 18 17 17 17 17 17 17 17
15 16 16 16 15 12 13 12 11 11 11 12 11 11 11 11 11 12 12 13 13 13 14 14 14 15 15 15 15 15 16 16 17 18 18 19 19 19 18 18 18 18 17 17 17 17 17 16 17
15 15 15 15 14 11 11 11 10 10 10 11 11 11 11 11 11 11 12 12 12 12 13 13 13 14 14 14 14 14 15 15 16 17 17 18 18 18 18 18 18 17 17 17 17 16 16 16 16
14 14 13 11 11 11 10 11 11 10 10 10 11 11 11 11 11 11 12 12 12 12 12 13 13 13 13 13 14 14 14 14 15 15 16 16 17 17 17 17 17 17 17 16 16 16 16 15 15
12 12 13 13 11 11 11 11 11 11 11 11 11 11 11 11 11 11 11 11 12 12 12 12 12 12 13 13 13 13 14 14 14 15 15 15 16 16 16 16 16 16 16 16 16 16 15 15 15
12 11 12 13 12 11 11 11 11 12 12 12 11 11 11 11 11 11 11 11 11 11 12 12 12 12 12 12 13 13 13 14 14 14 14 15 15 15 15 15 15 15 15 15 15 15 15 15 15
13 11 11 10 11 11 11 12 12 12 12 12 11 11 11 11 11 11 11 11 11 11 12 12 12 12 12 12 12 13 13 13 13 14 14 14 14 14 14 14 14 14 14 14 14 14 14 14 14
11 11 9 10 11 11 11 11 10 10 11 11 11 11 12 12 12 11 11 11 11 11 11 12 12 12 12 12 12 13 13 13 13 13 14 14 14 14 14 14 14 14 14 14 14 14 14 14 14
11 11 8 8 9 9 10 11 12 11 10 10 10 11 12 12 12 12 12 11 11 11 11 12 12 12 12 12 12 13 13 13 13 13 13 13 13 13 13 13 13 13 13 13 13 13 13 13 13
11 10 9 9 8 9 9 10 12 11 11 11 11 12 13 13 13 13 12 12 12 12 11 11 12 12 12 12 12 12 13 13 13 13 13 13 13 13 13 13 13 13 13 13 13 13 13 13 13
Wind_Speed
1 5 4 3 6 6 4 4 2 3 4 3 4 6 6 4 2 2 2 9 11 11 11 13 13 12 12 11 10 10 10 10 10 10 10 10 10 10 10 10 9 8 8 7 7 8 8 9 9
2 4 3 5 6 5 3 3 1 3 5 4 5 5 6 4 3 5 5 6 11 11 12 13 14 13 12 11 10 9 9 9 9 9 9 9 9 9 8 8 8 8 8 7 7 7 8 8 8
3 3 4 5 5 4 0 1 1 4 4 2 4 5 4 3 5 5 6 10 10 10 12 13 15 13 12 11 10 9 9 9 9 9 8 8 8 8 7 7 7 7 7 7 7 7 7 7 7
4 4 5 6 5 1 2 1 4 6 3 6 4 5 4 2 6 6 11 12 11 8 11 13 15 14 13 11 11 10 9 9 8 8 8 7 7 7 7 7 6 6 6 6 6 6 6 6 6
4 5 7 6 5 5 3 1 3 5 3 4 4 4 3 4 7 12 13 13 11 9 11 13 16 15 14 12 11 10 9 9 8 8 8 7 6 6 6 6 6 5 5 5 5 5 5 5 5
4 5 6 4 7 7 6 6 3 5 4 4 4 4 3 2 8 11 12 11 10 11 11 13 17 16 15 14 13 11 11 10 9 8 8 7 6 6 5 5 5 4 4 4 4 4 4 4 5
5 5 4 3 4 7 7 6 3 4 3 3 5 5 1 2 6 11 10 8 7 8 8 10 14 16 16 15 14 13 12 11 10 9 8 7 6 6 5 4 4 3 2 3 3 4 4 4 4
5 5 4 2 3 5 8 5 4 3 2 3 4 6 5 6 6 8 7 6 6 6 6 7 10 12 13 14 15 14 14 13 12 11 10 9 8 7 7 5 4 3 2 1 2 2 3 3 4
4 5 3 2 1 2 5 5 5 3 4 3 2 3 4 9 10 8 5 5 6 8 6 6 7 9 11 12 14 15 15 14 14 12 12 10 8 7 7 6 5 4 3 2 1 1 2 3 5
5 4 3 4 3 2 3 5 6 5 6 6 5 6 7 10 10 8 7 8 9 10 9 7 7 7 9 11 11 11 12 12 13 11 11 10 8 7 6 7 7 6 5 4 3 2 1 4 4
4 5 3 1 1 0 2 5 8 6 7 7 6 3 7 7 5 4 5 5 8 7 8 9 8 7 7 7 7 8 9 10 11 12 11 10 8 7 6 5 6 6 5 3 2 2 2 2 1
4 2 2 2 2 3 3 4 9 14 8 9 7 9 11 10 7 7 6 5 4 3 5 6 8 6 7 8 6 6 6 7 8 11 12 10 6 5 6 5 6 5 4 4 3 3 2 2 2
3 2 3 5 7 7 12 11 9 14 12 16 21 21 17 15 12 11 11 10 9 7 5 4 5 7 7 6 6 6 7 8 9 10 12 12 7 4 5 5 6 7 7 5 4 4 3 3 3
3 6 6 8 7 7 14 12 9 11 12 19 21 18 16 14 13 13 13 13 12 10 9 7 4 4 6 7 7 5 8 10 10 11 12 14 11 7 5 4 5 6 8 8 6 4 3 2 2
2 6 8 9 7 3 8 14 13 12 13 19 18 16 16 15 14 13 12 11 11 10 10 9 7 5 4 6 8 7 8 9 9 11 14 15 14 11 7 5 5 6 9 8 5 4 3 3 3
5 6 5 7 9 6 9 8 13 12 15 18 16 15 14 14 15 13 12 11 11 11 11 11 9 8 6 5 6 6 8 9 9 11 13 15 16 14 9 6 7 8 7 5 4 3 3 3 3
8 4 4 6 11 7 9 8 11 13 16 16 15 13 13 13 14 13 13 12 11 11 10 11 10 10 9 7 6 6 6 7 9 10 11 13 15 15 11 7 7 8 5 4 5 4 4 4 4
2 2 3 5 7 10 13 10 11 12 15 14 13 12 12 13 12 11 11 11 10 9 9 9 10 10 10 7 6 4 5 7 7 9 11 13 13 14 11 7 6 6 5 5 5 4 4 3 4
2 3 3 3 5 8 12 11 9 11 14 15 14 13 13 12 11 11 11 11 11 10 10 9 10 10 9 6 5 5 4 5 6 8 11 12 12 12 9 6 5 5 6 6 6 4 5 3 3
5 4 3 3 5 7 8 8 6 8 11 10 12 13 13 15 16 15 13 11 11 11 10 9 9 10 9 7 6 5 6 6 6 6 7 11 12 11 9 8 6 5 4 4 5 4 3 3 4
4 4 0 1 4 5 5 4 7 5 6 11 13 11 12 14 16 16 15 13 12 11 11 11 11 10 10 9 7 6 5 4 3 5 6 8 11 12 11 10 9 7 6 6 6 5 5 4 3
2 2 3 3 3 2 2 0 6 8 9 16 17 15 15 15 15 14 14 14 12 11 10 10 10 10 10 9 8 8 6 6 5 4 4 5 6 8 10 9 10 9 8 8 8 7 5 4 3
4 5 2 1 5 5 7 4 6 8 11 18 17 16 16 15 15 14 13 13 12 11 10 9 9 9 9 9 8 7 6 6 5 4 3 3 3 4 5 7 8 9 8 8 7 7 6 5 4
4 2 5 6 5 5 5 3 5 6 11 16 16 16 16 15 15 14 12 12 11 10 9 9 9 9 9 9 8 7 7 7 5 3 1 1 1 1 3 4 6 7 7 8 8 8 8 6 5
9 6 4 5 6 2 3 4 3 6 8 11 15 16 15 14 14 15 14 14 12 11 11 9 9 9 9 9 8 8 8 7 6 4 2 1 1 1 2 3 4 4 5 6 6 7 7 7 7
5 5 5 3 2 1 3 3 4 5 8 9 11 12 14 14 14 15 14 13 12 11 10 9 9 8 9 9 8 8 8 6 5 6 5 3 2 2 2 2 3 3 4 5 5 5 6 6 7
4 4 2 6 3 3 3 3 4 6 11 12 13 14 15 15 15 15 14 13 12 12 11 10 9 9 9 9 8 8 8 8 7 7 6 5 4 3 4 4 3 3 3 3 4 4 4 5 5
5 4 5 5 3 2 3 3 6 11 14 14 15 14 15 14 14 13 13 14 12 12 11 11 10 9 8 8 8 7 8 8 7 7 8 7 7 6 5 4 4 3 3 3 4 3 3 4 3
6 5 6 5 4 4 1 3 3 7 9 11 12 12 12 12 12 11 10 11 11 11 11 11 12 11 10 9 9 9 9 8 8 8 8 7 6 6 5 5 5 5 4 3 3 3 4 4 3
5 4 3 4 2 3 2 4 5 5 7 8 10 11 11 10 10 9 9 10 10 11 11 12 11 11 11 10 10 10 9 9 9 9 9 8 8 7 6 6 6 6 5 4 3 2 2 3 3
Wind_Direction
324 115 109 70 55 51 43 337 303 46 56 42 79 93 99 99 160 204 116 138 137 144 156 159 158 157 154 151 148 145 139 133 130 129 129 129 129 128 128 127 127 128 128 131 135 135 131 125 120
164 128 75 59 77 65 352 318 349 56 123 135 73 73 73 68 74 107 131 144 142 146 151 157 160 161 160 159 158 153 146 140 135 132 130 128 127 126 125 124 123 123 124 125 129 129 126 122 119
142 98 76 65 81 123 98 297 125 93 107 74 67 54 67 92 131 146 156 145 143 147 150 161 164 165 166 168 166 160 157 150 145 140 135 130 127 124 123 120 118 118 118 120 122 125 125 123 120
104 53 53 62 46 308 276 272 146 128 65 49 81 60 55 77 152 151 142 147 148 146 153 167 167 170 173 175 173 169 167 162 156 151 145 139 133 129 126 121 115 112 113 114 118 122 125 125 119
63 75 54 42 6 338 337 326 136 120 76 50 74 78 36 8 115 133 145 154 155 154 161 173 173 176 179 181 179 178 177 172 167 162 158 153 146 138 131 125 116 108 105 104 106 115 121 118 109
57 65 67 29 346 341 5 10 69 90 94 93 94 85 28 99 131 146 154 159 162 164 168 178 180 182 184 186 186 186 186 182 178 174 172 170 163 154 146 138 126 113 99 91 86 89 102 102 95
88 78 85 48 353 355 354 352 69 99 111 147 127 99 76 190 173 154 156 155 162 171 174 182 185 187 190 192 192 193 193 191 189 187 189 188 184 178 172 166 153 138 112 89 76 70 78 86 87
106 95 75 43 27 345 333 2 45 54 82 115 114 136 186 205 168 143 141 146 166 183 191 193 192 190 194 197 199 199 199 198 197 197 200 202 203 202 197 191 189 191 183 138 76 60 63 70 74
80 75 107 183 141 314 336 22 22 24 65 45 59 173 200 148 140 136 139 159 182 198 205 205 203 200 199 201 207 205 205 204 203 204 207 206 209 215 213 205 210 222 229 235 249 9 39 55 51
69 106 185 197 191 210 14 31 10 35 31 13 16 36 90 129 150 164 177 189 199 207 208 209 211 208 204 208 213 212 208 207 205 205 208 204 202 211 215 217 225 232 238 247 255 271 5 51 42
81 146 199 222 227 318 61 57 30 42 22 350 332 34 92 119 146 184 214 221 219 222 218 212 213 215 211 216 216 211 209 206 205 203 204 200 199 209 215 216 236 249 250 251 280 326 22 36 14
93 127 109 351 39 37 48 75 55 38 2 343 30 58 57 58 41 19 0 336 311 278 251 235 215 211 215 218 221 213 210 208 207 206 203 195 194 202 208 212 221 231 234 232 243 252 263 271 275
68 89 59 28 56 59 62 55 69 30 25 50 58 56 52 49 39 33 28 20 10 357 335 300 241 220 215 214 221 216 215 217 215 210 207 201 198 200 207 214 219 224 224 222 230 239 245 247 247
32 76 58 31 42 58 73 48 44 15 27 53 55 54 50 45 37 32 26 21 15 8 357 346 317 251 223 219 222 221 218 217 214 214 213 208 207 207 205 213 218 223 221 221 222 232 244 253 247
76 93 54 26 20 59 87 46 21 6 39 49 45 43 41 37 32 28 19 14 8 3 359 357 349 345 283 240 231 229 224 219 216 218 215 212 211 210 209 214 222 224 220 215 215 226 239 253 245
48 60 48 14 11 20 80 61 11 14 45 46 36 31 31 28 26 19 14 11 5 1 0 359 1 354 338 298 256 242 227 218 220 219 215 213 213 212 208 214 226 223 206 196 197 201 218 238 228
34 55 43 13 15 37 75 76 23 26 44 42 30 24 20 17 15 10 6 4 360 356 353 352 352 350 340 321 283 252 234 222 222 220 215 215 214 211 209 215 222 213 195 192 207 193 190 208 211
2 60 57 40 30 63 83 77 41 31 42 37 25 15 10 6 359 354 354 355 351 348 347 347 346 343 336 326 309 281 250 231 221 219 217 210 211 210 208 215 219 211 204 204 200 198 192 197 191
99 109 92 57 72 80 90 79 48 34 34 26 15 5 359 351 343 344 345 347 346 346 347 344 344 339 339 334 327 310 280 253 231 224 218 207 204 203 200 209 209 207 218 222 204 189 190 188 146
68 88 51 25 81 102 106 84 48 38 34 20 7 356 348 343 343 342 340 342 343 340 339 338 337 333 331 323 311 290 285 271 247 231 217 208 200 192 195 192 193 192 208 222 202 182 176 171 159
49 105 357 292 69 86 116 65 18 357 8 9 6 354 347 341 337 333 333 334 334 333 334 335 330 329 327 323 314 308 296 286 269 238 223 214 202 191 188 187 182 178 183 200 198 187 182 179 179
326 336 304 257 128 52 4 252 2 332 339 358 355 350 343 337 333 329 328 326 324 322 325 325 325 327 326 324 322 318 308 295 284 273 248 227 209 195 189 181 179 177 181 189 193 183 182 170 175
291 315 323 130 124 71 25 59 334 338 349 346 343 340 336 332 330 327 324 320 318 318 321 321 324 327 328 330 330 324 313 301 296 281 251 235 216 205 194 188 183 181 183 184 182 176 182 182 180
332 59 64 54 72 54 343 36 351 344 332 329 333 335 334 332 331 328 325 323 321 321 323 326 330 331 334 339 342 342 337 331 327 322 296 244 178 161 170 176 181 184 184 183 183 180 183 187 186
32 67 47 27 36 24 333 60 322 297 318 323 328 332 335 336 338 335 335 336 333 333 333 336 337 338 344 347 351 355 354 355 357 352 351 17 78 104 158 168 173 177 179 177 175 180 186 189 193
28 78 118 140 137 325 14 25 287 285 316 325 331 336 343 346 348 346 345 344 342 340 342 348 349 350 353 356 357 3 9 11 13 18 23 33 45 58 94 125 143 154 166 173 174 176 183 186 193
51 54 107 119 109 75 10 335 314 328 340 344 344 345 344 344 347 350 352 352 350 352 355 355 357 360 0 2 4 10 14 20 21 23 29 32 35 48 62 81 100 116 138 155 163 172 171 169 175
81 95 71 79 111 84 352 342 323 324 333 336 340 339 336 339 345 350 354 355 356 359 0 3 7 6 3 5 12 15 12 17 19 25 32 33 33 38 50 62 72 85 98 119 131 134 136 141 145
21 48 73 78 91 126 87 308 278 299 311 321 325 327 327 331 336 342 345 350 354 1 4 8 12 15 15 15 18 19 18 20 25 29 31 32 35 38 46 58 66 68 74 85 101 113 127 130 126
92 73 110 119 99 106 136 274 290 311 308 312 318 325 328 332 332 334 340 348 355 360 3 7 11 17 18 19 24 26 27 27 31 33 32 35 39 38 42 52 59 60 60 64 75 93 120 138 149
Height
1511 1510 1510 1511 1514 1526 1530 1523 1518 1515 1516 1516 1516 1517 1519 1521 1524 1528 1524 1525 1528 1532 1534 1537 1539 1541 1543 1545 1546 1547 1548 1549 1550 1550 1551 1552 1553 1554 1554 1555 1556 1557 1557 1558 1559 1560 1560 1561 1562
1511 1511 1512 1512 1524 1541 1534 1522 1519 1516 1517 1518 1518 1519 1520 1521 1522 1522 1523 1526 1530 1533 1535 1538 1540 1542 1544 1545 1547 1548 1549 1550 1550 1551 1552 1552 1553 1554 1555 1555 1556 1557 1558 1558 1559 1560 1561 1562 1562
1512 1512 1514 1517 1529 1537 1530 1520 1518 1518 1518 1518 1519 1520 1522 1523 1523 1523 1525 1528 1531 1534 1537 1539 1541 1543 1544 1546 1547 1548 1549 1550 1551 1551 1552 1553 1554 1554 1555 1556 1556 1557 1557 1558 1559 1560 1561 1562 1563
1513 1514 1515 1523 1529 1526 1522 1519 1517 1518 1519 1519 1520 1523 1524 1526 1526 1526 1527 1529 1532 1535 1537 1540 1542 1543 1545 1546 1547 1548 1549 1550 1551 1552 1553 1553 1554 1555 1555 1556 1556 1557 1557 1558 1559 1560 1561 1562 1563
1513 1515 1523 1532 1530 1523 1519 1517 1518 1518 1520 1521 1522 1524 1526 1527 1527 1528 1529 1531 1533 1536 1538 1540 1542 1543 1545 1546 1547 1548 1549 1550 1551 1552 1553 1554 1555 1555 1555 1556 1556 1557 1558 1558 1559 1560 1561 1562 1563
1515 1517 1534 1541 1534 1524 1520 1519 1519 1520 1521 1523 1524 1525 1527 1528 1529 1530 1531 1532 1535 1537 1539 1541 1542 1544 1545 1546 1547 1548 1549 1550 1551 1552 1553 1554 1555 1555 1556 1556 1557 1557 1558 1558 1559 1560 1561 1562 1563
1517 1523 1535 1538 1536 1529 1524 1522 1522 1522 1523 1524 1525 1526 1528 1529 1531 1532 1533 1534 1536 1538 1540 1541 1543 1544 1545 1546 1547 1548 1549 1550 1551 1552 1553 1554 1555 1555 1556 1556 1557 1557 1558 1559 1559 1560 1561 1562 1563
1517 1524 1535 1538 1536 1532 1526 1524 1525 1525 1526 1526 1526 1527 1529 1530 1531 1533 1534 1536 1537 1539 1540 1542 1543 1544 1545 1546 1547 1548 1549 1550 1551 1552 1553 1553 1554 1555 1555 1556 1556 1557 1558 1559 1559 1560 1561 1562 1563
1519 1530 1539 1536 1535 1532 1527 1527 1527 1528 1527 1528 1528 1529 1529 1531 1532 1534 1535 1536 1538 1539 1540 1541 1542 1544 1545 1545 1546 1547 1548 1549 1550 1551 1552 1553 1553 1554 1555 1555 1556 1557 1557 1558 1559 1560 1561 1562 1562
1521 1535 1533 1530 1529 1529 1529 1529 1530 1530 1530 1531 1530 1531 1531 1532 1533 1534 1536 1537 1538 1539 1540 1541 1542 1543 1544 1545 1545 1546 1547 1548 1549 1550 1551 1552 1553 1553 1554 1555 1555 1556 1557 1558 1559 1560 1560 1561 1562
1523 1529 1527 1528 1529 1529 1530 1532 1534 1533 1536 1536 1535 1534 1534 1534 1536 1537 1538 1539 1540 1541 1541 1542 1542 1543 1544 1544 1545 1545 1546 1547 1547 1548 1549 1550 1551 1552 1553 1554 1554 1555 1556 1557 1558 1559 1560 1561 1562
1525 1526 1528 1529 1529 1530 1532 1534 1538 1541 1544 1539 1536 1536 1537 1538 1539 1540 1540 1540 1541 1541 1541 1542 1542 1543 1543 1544 1544 1544 1545 1545 1546 1547 1548 1549 1550 1551 1552 1553 1553 1554 1555 1556 1557 1559 1560 1561 1562
1526 1528 1530 1531 1531 1533 1535 1539 1543 1547 1545 1540 1537 1538 1540 1541 1542 1541 1541 1540 1539 1539 1540 1540 1541 1541 1542 1542 1543 1543 1543 1544 1544 1545 1546 1547 1548 1549 1550 1551 1552 1552 1553 1555 1556 1558 1559 1561 1562
1529 1531 1533 1534 1534 1537 1540 1546 1548 1553 1549 1543 1542 1543 1544 1544 1544 1543 1541 1540 1539 1538 1537 1537 1538 1538 1539 1540 1540 1541 1541 1542 1542 1542 1543 1544 1546 1547 1549 1550 1551 1551 1552 1554 1555 1557 1558 1560 1561
1529 1532 1536 1538 1537 1540 1541 1554 1559 1558 1553 1548 1548 1548 1547 1546 1545 1544 1542 1541 1539 1537 1536 1534 1534 1534 1534 1535 1537 1537 1538 1539 1540 1540 1541 1541 1543 1544 1546 1548 1549 1550 1551 1552 1554 1556 1557 1559 1560
1531 1538 1547 1544 1542 1542 1547 1567 1566 1562 1556 1554 1553 1552 1550 1549 1547 1546 1544 1542 1539 1537 1535 1533 1532 1531 1530 1530 1531 1532 1533 1535 1536 1537 1538 1538 1539 1541 1543 1545 1546 1548 1549 1550 1552 1554 1555 1557 1558
1544 1550 1551 1550 1547 1546 1553 1569 1570 1566 1561 1559 1558 1556 1554 1551 1549 1547 1545 1543 1540 1537 1534 1532 1530 1528 1527 1526 1526 1527 1528 1529 1530 1532 1533 1534 1535 1537 1539 1541 1543 1545 1547 1548 1550 1551 1553 1555 1556
1553 1553 1554 1556 1556 1556 1563 1572 1572 1569 1565 1563 1561 1559 1556 1553 1551 1548 1545 1542 1540 1537 1534 1531 1529 1526 1524 1523 1522 1522 1522 1523 1524 1526 1527 1529 1531 1532 1534 1536 1539 1541 1543 1544 1546 1548 1550 1552 1554
1550 1553 1557 1557 1558 1564 1570 1574 1574 1571 1567 1565 1563 1561 1557 1554 1552 1548 1545 1541 1538 1535 1532 1529 1526 1523 1521 1519 1518 1517 1516 1517 1518 1520 1521 1524 1525 1527 1529 1531 1533 1536 1538 1540 1542 1544 1546 1549 1551
1554 1559 1560 1560 1560 1566 1573 1575 1574 1572 1571 1570 1567 1562 1559 1553 1549 1546 1543 1539 1536 1533 1530 1526 1523 1520 1518 1515 1513 1512 1511 1511 1511 1513 1514 1517 1519 1521 1523 1525 1527 1530 1533 1535 1537 1539 1542 1545 1547
1559 1562 1562 1562 1563 1567 1572 1577 1576 1573 1572 1570 1567 1563 1559 1555 1549 1545 1541 1537 1534 1531 1527 1523 1520 1517 1514 1512 1509 1508 1506 1506 1506 1507 1508 1510 1512 1515 1517 1519 1521 1524 1526 1529 1532 1535 1537 1540 1543
1565 1560 1560 1560 1568 1578 1575 1583 1583 1577 1572 1568 1565 1562 1558 1553 1548 1544 1540 1536 1532 1529 1525 1521 1517 1514 1511 1508 1506 1504 1502 1501 1501 1502 1502 1504 1506 1508 1511 1513 1515 1518 1520 1523 1525 1528 1532 1535 1537
1563 1560 1560 1562 1569 1581 1584 1587 1588 1580 1576 1570 1567 1562 1557 1552 1547 1542 1538 1534 1530 1526 1522 1519 1515 1512 1509 1506 1503 1501 1499 1498 1497 1497 1498 1499 1500 1503 1505 1507 1510 1512 1515 1517 1520 1522 1526 1529 1532
1561 1561 1564 1570 1577 1591 1592 1591 1591 1586 1582 1575 1568 1563 1557 1552 1546 1541 1536 1532 1527 1524 1520 1516 1513 1510 1507 1504 1502 1499 1497 1496 1495 1494 1494 1495 1497 1498 1500 1503 1505 1508 1510 1512 1515 1517 1521 1523 1526
1565 1571 1580 1582 1594 1596 1590 1591 1593 1584 1580 1576 1570 1563 1557 1552 1546 1540 1534 1529 1525 1522 1518 1515 1512 1509 1506 1503 1501 1499 1497 1495 1494 1493 1493 1493 1495 1496 1497 1500 1502 1504 1506 1508 1510 1513 1516 1518 1520
1572 1577 1587 1590 1595 1597 1591 1593 1590 1582 1579 1575 1570 1564 1559 1552 1547 1540 1535 1530 1525 1521 1518 1514 1512 1509 1506 1503 1501 1499 1497 1496 1494 1493 1493 1493 1494 1494 1496 1497 1499 1500 1502 1504 1506 1509 1511 1513 1516
1574 1581 1581 1590 1593 1597 1595 1590 1585 1580 1577 1574 1569 1565 1559 1554 1548 1543 1537 1532 1526 1522 1519 1516 1513 1510 1507 1505 1503 1501 1499 1497 1496 1495 1494 1494 1494 1494 1495 1496 1497 1498 1499 1501 1503 1505 1507 1509 1511
1577 1580 1586 1591 1597 1601 1598 1594 1594 1585 1580 1575 1570 1566 1561 1556 1551 1546 1540 1535 1530 1526 1522 1518 1515 1512 1510 1507 1505 1504 1502 1500 1498 1497 1496 1495 1495 1495 1495 1496 1496 1497 1498 1499 1501 1502 1504 1505 1508
1581 1584 1591 1599 1600 1604 1603 1600 1587 1585 1581 1578 1573 1568 1563 1559 1554 1550 1545 1540 1535 1530 1526 1522 1518 1515 1513 1511 1509 1507 1505 1503 1502 1500 1499 1498 1498 1497 1497 1497 1497 1497 1498 1499 1500 1501 1503 1504 1506
1582 1586 1591 1598 1604 1603 1604 1602 1584 1583 1580 1577 1574 1570 1566 1562 1557 1553 1549 1545 1540 1535 1531 1526 1523 1520 1517 1515 1513 1510 1509 1507 1505 1504 1503 1502 1501 1500 1499 1499 1498 1498 1499 1500 1501 1502 1503 1504 1505